RYR7MF GCRR-LEZL

Flight info

Callsign RYR7MF
Flight time 1h 37m
Altitude 38000
Route KORAL UG5 SONSO DCT NIRAL UN871 ADUBI DCT VJF
Aircraft B38M/M-SDE1FGHILORVWXY/HB1

Departure

Time 2026-04-26 19:42
Airport César Manrique-Lanzarote Airport (GCRR)

Arrival

Time 2026-04-26 21:19
Airport Seville Airport (LEZL)
Time Latitude Longitude Altitude Speed Heading
2026-04-26 19:19 28.95010 -13.60749 52 ft 0 kts 296°
2026-04-26 19:33 28.95009 -13.60747 48 ft 3 kts 296°
2026-04-26 19:33 28.94997 -13.60719 47 ft 4 kts 295°
2026-04-26 19:33 28.94986 -13.60691 51 ft 4 kts 292°
2026-04-26 19:33 28.94979 -13.60667 47 ft 2 kts 270°
2026-04-26 19:34 28.94984 -13.60653 50 ft 2 kts 217°
2026-04-26 19:34 28.94994 -13.60646 49 ft 2 kts 207°
2026-04-26 19:34 28.94996 -13.60645 47 ft 0 kts 206°
2026-04-26 19:34 28.94996 -13.60644 47 ft 0 kts 206°
2026-04-26 19:36 28.94996 -13.60645 47 ft 0 kts 206°
2026-04-26 19:37 28.94957 -13.60666 50 ft 15 kts 205°
2026-04-26 19:37 28.94888 -13.60626 50 ft 15 kts 116°
2026-04-26 19:37 28.94804 -13.60571 51 ft 16 kts 200°
2026-04-26 19:37 28.94655 -13.60662 50 ft 33 kts 209°
2026-04-26 19:38 28.94514 -13.60749 39 ft 15 kts 205°
2026-04-26 19:38 28.94355 -13.60837 32 ft 35 kts 206°
2026-04-26 19:38 28.94248 -13.60900 31 ft 10 kts 208°
2026-04-26 19:38 28.94131 -13.60972 29 ft 28 kts 208°
2026-04-26 19:39 28.93977 -13.61063 27 ft 6 kts 206°
2026-04-26 19:39 28.93883 -13.61116 28 ft 24 kts 207°
2026-04-26 19:39 28.93767 -13.61183 26 ft 16 kts 206°
2026-04-26 19:39 28.93731 -13.61203 27 ft 7 kts 206°
2026-04-26 19:40 28.93661 -13.61213 31 ft 15 kts 142°
2026-04-26 19:40 28.93618 -13.61074 31 ft 20 kts 63°
2026-04-26 19:40 28.93652 -13.61040 27 ft 0 kts 27°
2026-04-26 19:41 28.93660 -13.61036 27 ft 6 kts 27°
2026-04-26 19:41 28.93750 -13.60986 27 ft 26 kts 25°
2026-04-26 19:41 28.94133 -13.60773 31 ft 98 kts 26°
2026-04-26 19:41 28.94625 -13.60486 40 ft 140 kts 26°
2026-04-26 19:42 28.95872 -13.59640 931 ft 155 kts 32°
2026-04-26 19:42 28.96728 -13.58903 1882 ft 153 kts 31°
2026-04-26 19:42 28.97607 -13.58173 2532 ft 160 kts 32°
2026-04-26 19:42 28.98553 -13.57381 3095 ft 177 kts 33°
2026-04-26 19:43 28.99590 -13.56506 3624 ft 194 kts 34°
2026-04-26 19:43 29.00687 -13.55502 4200 ft 211 kts 41°
2026-04-26 19:43 29.01701 -13.54186 4765 ft 229 kts 47°
2026-04-26 19:43 29.02753 -13.52734 5344 ft 248 kts 48°
2026-04-26 19:44 29.03853 -13.51199 6309 ft 252 kts 49°
2026-04-26 19:44 29.04990 -13.49600 7074 ft 265 kts 50°
2026-04-26 19:44 29.06183 -13.47916 7735 ft 279 kts 50°
2026-04-26 19:44 29.07407 -13.46182 8743 ft 280 kts 51°
2026-04-26 19:45 29.08687 -13.44467 9634 ft 287 kts 49°
2026-04-26 19:45 29.10013 -13.42715 10432 ft 294 kts 50°
2026-04-26 19:45 29.11381 -13.40899 11021 ft 309 kts 49°
2026-04-26 19:45 29.12825 -13.38979 11519 ft 326 kts 49°
2026-04-26 19:46 29.14333 -13.36971 12106 ft 338 kts 49°
2026-04-26 19:46 29.15870 -13.34923 12967 ft 340 kts 49°
2026-04-26 19:46 29.17424 -13.32851 13709 ft 348 kts 49°
2026-04-26 19:46 29.19012 -13.30732 14458 ft 352 kts 49°
2026-04-26 19:47 29.20593 -13.28619 15195 ft 356 kts 49°
2026-04-26 19:47 29.21686 -13.27158 15683 ft 359 kts 49°
2026-04-26 19:47 29.23857 -13.24258 16634 ft 365 kts 50°
2026-04-26 19:47 29.25521 -13.22032 17352 ft 370 kts 50°
2026-04-26 19:48 29.27205 -13.19779 18054 ft 374 kts 50°
2026-04-26 19:48 29.28904 -13.17506 18686 ft 378 kts 50°
2026-04-26 19:48 29.30622 -13.15205 19298 ft 381 kts 51°
2026-04-26 19:48 29.32355 -13.12882 19903 ft 385 kts 51°
2026-04-26 19:49 29.34098 -13.10545 20508 ft 388 kts 51°
2026-04-26 19:49 29.35859 -13.08182 21087 ft 391 kts 51°
2026-04-26 19:49 29.37634 -13.05799 21678 ft 395 kts 51°
2026-04-26 19:49 29.39425 -13.03394 22251 ft 398 kts 52°
2026-04-26 19:50 29.41227 -13.00973 22829 ft 400 kts 52°
2026-04-26 19:50 29.43040 -12.98532 23323 ft 404 kts 51°
2026-04-26 19:50 29.44872 -12.96068 23861 ft 406 kts 51°
2026-04-26 19:50 29.46716 -12.93585 24300 ft 410 kts 51°
2026-04-26 19:51 29.48574 -12.91082 24732 ft 413 kts 51°
2026-04-26 19:51 29.50443 -12.88561 25193 ft 416 kts 51°
2026-04-26 19:51 29.52304 -12.86051 25613 ft 419 kts 51°
2026-04-26 19:51 29.54203 -12.83489 26042 ft 423 kts 51°
2026-04-26 19:52 29.56121 -12.80898 26474 ft 426 kts 51°
2026-04-26 19:52 29.58051 -12.78288 26888 ft 428 kts 51°
2026-04-26 19:52 29.59991 -12.75665 27301 ft 431 kts 51°
2026-04-26 19:52 29.61915 -12.73060 27692 ft 434 kts 51°
2026-04-26 19:53 29.63875 -12.70406 28114 ft 437 kts 51°
2026-04-26 19:53 29.65848 -12.67734 28508 ft 440 kts 51°
2026-04-26 19:53 29.67833 -12.65042 28891 ft 442 kts 51°
2026-04-26 19:53 29.69826 -12.62337 29288 ft 445 kts 51°
2026-04-26 19:54 29.71829 -12.59618 29665 ft 448 kts 51°
2026-04-26 19:54 29.73829 -12.56852 30018 ft 450 kts 54°
2026-04-26 19:54 29.75566 -12.53850 30337 ft 452 kts 58°
2026-04-26 19:54 29.77315 -12.50828 30596 ft 456 kts 57°
2026-04-26 19:55 29.79095 -12.47791 30902 ft 458 kts 57°
2026-04-26 19:55 29.80888 -12.44751 31203 ft 460 kts 57°
2026-04-26 19:55 29.82694 -12.41692 31488 ft 463 kts 57°
2026-04-26 19:55 29.84512 -12.38610 31767 ft 466 kts 57°
2026-04-26 19:56 29.86347 -12.35501 32056 ft 469 kts 57°
2026-04-26 19:56 29.88158 -12.32428 32339 ft 471 kts 57°
2026-04-26 19:56 29.90004 -12.29294 32615 ft 474 kts 57°
2026-04-26 19:56 29.91857 -12.26146 32895 ft 476 kts 57°
2026-04-26 19:57 29.93722 -12.22974 33169 ft 479 kts 57°
2026-04-26 19:57 29.95593 -12.19789 33436 ft 481 kts 57°
2026-04-26 19:57 29.97478 -12.16580 33756 ft 482 kts 57°
2026-04-26 19:57 29.99362 -12.13369 34104 ft 483 kts 57°
2026-04-26 19:58 30.01315 -12.10207 34380 ft 484 kts 49°
2026-04-26 19:58 30.03700 -12.07480 34694 ft 484 kts 44°
2026-04-26 19:58 30.06108 -12.04764 34943 ft 485 kts 45°
2026-04-26 19:58 30.08532 -12.02034 35197 ft 486 kts 44°
2026-04-26 19:59 30.10956 -11.99317 35488 ft 486 kts 44°
2026-04-26 19:59 30.13388 -11.96592 35762 ft 487 kts 44°
2026-04-26 19:59 30.15816 -11.93871 36028 ft 487 kts 44°
2026-04-26 19:59 30.18253 -11.91138 36292 ft 487 kts 44°
2026-04-26 20:00 30.20679 -11.88415 36545 ft 488 kts 44°
2026-04-26 20:00 30.23086 -11.85713 36806 ft 488 kts 44°
2026-04-26 20:00 30.25529 -11.82967 37030 ft 488 kts 44°
2026-04-26 20:00 30.27966 -11.80226 37262 ft 489 kts 44°
2026-04-26 20:01 30.30403 -11.77483 37496 ft 489 kts 44°
2026-04-26 20:01 30.32838 -11.74741 37722 ft 489 kts 44°
2026-04-26 20:01 30.35279 -11.71990 37928 ft 489 kts 44°
2026-04-26 20:01 30.37717 -11.69239 37953 ft 489 kts 44°
2026-04-26 20:02 30.42559 -11.63772 37951 ft 488 kts 44°
2026-04-26 20:02 30.46629 -11.59170 37949 ft 488 kts 44°
2026-04-26 20:03 30.52272 -11.52779 37950 ft 487 kts 44°
2026-04-26 20:03 30.57121 -11.47280 37942 ft 487 kts 44°
2026-04-26 20:04 30.61958 -11.41785 37940 ft 487 kts 44°
2026-04-26 20:04 30.66802 -11.36275 37939 ft 486 kts 44°
2026-04-26 20:05 30.71605 -11.30804 37933 ft 486 kts 44°
2026-04-26 20:05 30.76442 -11.25284 37930 ft 486 kts 44°
2026-04-26 20:06 30.81264 -11.19774 37929 ft 486 kts 44°
2026-04-26 20:06 30.86076 -11.14268 37925 ft 485 kts 44°
2026-04-26 20:07 30.90865 -11.08780 37925 ft 485 kts 44°
2026-04-26 20:07 30.95670 -11.03265 37923 ft 484 kts 44°
2026-04-26 20:08 31.00465 -10.97754 37919 ft 484 kts 44°
2026-04-26 20:08 31.05257 -10.92237 37918 ft 483 kts 44°
2026-04-26 20:09 31.10046 -10.86716 37914 ft 483 kts 44°
2026-04-26 20:09 31.14799 -10.81228 37913 ft 483 kts 44°
2026-04-26 20:10 31.19577 -10.75703 37910 ft 483 kts 44°
2026-04-26 20:10 31.24348 -10.70179 37906 ft 482 kts 45°
2026-04-26 20:11 31.29111 -10.64654 37902 ft 482 kts 45°
2026-04-26 20:12 31.36247 -10.56362 37918 ft 482 kts 45°
2026-04-26 20:12 31.40967 -10.50867 37906 ft 481 kts 45°
2026-04-26 20:13 31.45717 -10.45329 37920 ft 481 kts 45°
2026-04-26 20:13 31.50459 -10.39791 37907 ft 481 kts 45°
2026-04-26 20:14 31.55198 -10.34249 37905 ft 480 kts 45°
2026-04-26 20:14 31.59903 -10.28738 37913 ft 480 kts 45°
2026-04-26 20:15 31.64630 -10.23193 37900 ft 480 kts 45°
2026-04-26 20:15 31.69353 -10.17645 37911 ft 480 kts 45°
2026-04-26 20:16 31.74078 -10.12084 37917 ft 479 kts 45°
2026-04-26 20:16 31.78787 -10.06536 37913 ft 479 kts 45°
2026-04-26 20:17 31.83464 -10.01015 37923 ft 479 kts 45°
2026-04-26 20:17 31.88161 -9.95463 37917 ft 479 kts 45°
2026-04-26 20:18 31.92861 -9.89899 37927 ft 479 kts 45°
2026-04-26 20:18 31.97564 -9.84323 37919 ft 479 kts 45°
2026-04-26 20:19 32.01456 -9.79702 37916 ft 479 kts 45°
2026-04-26 20:19 32.06148 -9.74122 37920 ft 478 kts 45°
2026-04-26 20:20 32.10831 -9.68546 37926 ft 478 kts 45°
2026-04-26 20:20 32.15515 -9.62960 37923 ft 478 kts 45°
2026-04-26 20:21 32.20196 -9.57368 37925 ft 478 kts 45°
2026-04-26 20:21 32.24871 -9.51774 37916 ft 478 kts 45°
2026-04-26 20:22 32.29543 -9.46176 37924 ft 478 kts 45°
2026-04-26 20:22 32.34187 -9.40602 37918 ft 478 kts 45°
2026-04-26 20:23 32.38852 -9.34995 37921 ft 478 kts 45°
2026-04-26 20:23 32.43510 -9.29387 37925 ft 478 kts 45°
2026-04-26 20:24 32.48175 -9.23762 37922 ft 478 kts 46°
2026-04-26 20:24 32.52799 -9.18177 37923 ft 477 kts 46°
2026-04-26 20:25 32.57452 -9.12549 37929 ft 477 kts 46°
2026-04-26 20:25 32.62092 -9.06928 37932 ft 477 kts 46°
2026-04-26 20:26 32.66735 -9.01295 37935 ft 477 kts 46°
2026-04-26 20:26 32.71379 -8.95651 37941 ft 477 kts 46°
2026-04-26 20:27 32.76010 -8.90013 37937 ft 476 kts 46°
2026-04-26 20:27 32.80616 -8.84398 37928 ft 476 kts 46°
2026-04-26 20:28 32.85239 -8.78752 37938 ft 476 kts 46°
2026-04-26 20:28 32.89863 -8.73097 37944 ft 476 kts 46°
2026-04-26 20:29 32.94474 -8.67452 37946 ft 476 kts 46°
2026-04-26 20:29 32.99107 -8.61769 37937 ft 476 kts 46°
2026-04-26 20:30 33.03713 -8.56111 37939 ft 475 kts 46°
2026-04-26 20:30 33.08291 -8.50478 37957 ft 475 kts 46°
2026-04-26 20:31 33.12886 -8.44816 37938 ft 475 kts 46°
2026-04-26 20:31 33.17487 -8.39138 37943 ft 475 kts 46°
2026-04-26 20:31 33.19897 -8.36460 37928 ft 473 kts 34°
2026-04-26 20:32 33.22668 -8.34335 37928 ft 474 kts 32°
2026-04-26 20:32 33.28227 -8.30092 37935 ft 474 kts 32°
2026-04-26 20:33 33.33797 -8.25888 37934 ft 474 kts 31°
2026-04-26 20:33 33.39340 -8.21706 37944 ft 473 kts 31°
2026-04-26 20:34 33.44909 -8.17497 37938 ft 473 kts 32°
2026-04-26 20:34 33.50478 -8.13281 37928 ft 473 kts 31°
2026-04-26 20:35 33.56041 -8.09065 37925 ft 472 kts 32°
2026-04-26 20:35 33.61595 -8.04849 37929 ft 472 kts 32°
2026-04-26 20:36 33.67147 -8.00627 37927 ft 472 kts 32°
2026-04-26 20:36 33.72670 -7.96421 37928 ft 472 kts 32°
2026-04-26 20:37 33.78215 -7.92191 37931 ft 471 kts 32°
2026-04-26 20:37 33.83749 -7.87964 37929 ft 471 kts 32°
2026-04-26 20:38 33.89285 -7.83728 37932 ft 471 kts 32°
2026-04-26 20:38 33.94810 -7.79494 37937 ft 471 kts 32°
2026-04-26 20:39 34.00336 -7.75253 37936 ft 470 kts 32°
2026-04-26 20:39 34.05857 -7.71009 37934 ft 470 kts 32°
2026-04-26 20:40 34.11368 -7.66766 37932 ft 470 kts 32°
2026-04-26 20:40 34.16850 -7.62539 37932 ft 470 kts 32°
2026-04-26 20:41 34.22359 -7.58284 37933 ft 470 kts 32°
2026-04-26 20:41 34.27869 -7.54022 37932 ft 469 kts 32°
2026-04-26 20:42 34.33368 -7.49761 37931 ft 469 kts 32°
2026-04-26 20:42 34.38867 -7.45494 37936 ft 469 kts 32°
2026-04-26 20:43 34.44362 -7.41223 37928 ft 469 kts 32°
2026-04-26 20:43 34.49825 -7.36970 37936 ft 469 kts 32°
2026-04-26 20:44 34.55317 -7.32688 37932 ft 469 kts 32°
2026-04-26 20:44 34.60799 -7.28407 37934 ft 468 kts 32°
2026-04-26 20:45 34.66284 -7.24117 37931 ft 468 kts 32°
2026-04-26 20:45 34.71763 -7.19825 37934 ft 468 kts 32°
2026-04-26 20:46 34.77230 -7.15535 37935 ft 467 kts 32°
2026-04-26 20:46 34.82688 -7.11245 37935 ft 467 kts 32°
2026-04-26 20:47 34.88141 -7.06953 37934 ft 466 kts 32°
2026-04-26 20:47 34.93592 -7.02655 37935 ft 466 kts 32°
2026-04-26 20:48 34.99033 -6.98358 37938 ft 465 kts 32°
2026-04-26 20:48 35.04466 -6.94061 37935 ft 465 kts 32°
2026-04-26 20:49 35.09906 -6.89750 37937 ft 465 kts 32°
2026-04-26 20:49 35.15309 -6.85463 37935 ft 466 kts 32°
2026-04-26 20:50 35.20743 -6.81146 37937 ft 466 kts 32°
2026-04-26 20:50 35.26184 -6.76816 37940 ft 466 kts 32°
2026-04-26 20:51 35.31622 -6.72481 37937 ft 466 kts 32°
2026-04-26 20:51 35.37064 -6.68242 37939 ft 466 kts 30°
2026-04-26 20:52 35.42554 -6.64018 37941 ft 466 kts 30°
2026-04-26 20:52 35.48040 -6.59787 37942 ft 467 kts 30°
2026-04-26 20:53 35.53562 -6.55518 37943 ft 468 kts 30°
2026-04-26 20:53 35.59080 -6.51247 37944 ft 468 kts 30°
2026-04-26 20:54 35.64597 -6.46969 37946 ft 468 kts 30°
2026-04-26 20:54 35.70103 -6.42692 37955 ft 468 kts 30°
2026-04-26 20:54 35.72863 -6.40546 37579 ft 468 kts 30°
2026-04-26 20:55 35.75608 -6.38410 36730 ft 469 kts 30°
2026-04-26 20:55 35.78394 -6.36240 35735 ft 476 kts 30°
2026-04-26 20:55 35.81175 -6.34072 35246 ft 470 kts 30°
2026-04-26 20:55 35.83883 -6.31873 35012 ft 460 kts 33°
2026-04-26 20:56 35.86466 -6.29645 34828 ft 448 kts 33°
2026-04-26 20:56 35.88990 -6.27486 34748 ft 434 kts 33°
2026-04-26 20:56 35.91459 -6.25380 34310 ft 431 kts 32°
2026-04-26 20:56 35.93920 -6.23281 33845 ft 427 kts 33°
2026-04-26 20:57 35.96343 -6.21213 33449 ft 421 kts 32°
2026-04-26 20:57 35.98748 -6.19159 32913 ft 419 kts 32°
2026-04-26 20:57 36.01137 -6.17117 32493 ft 414 kts 33°
2026-04-26 20:57 36.03505 -6.15092 31994 ft 412 kts 32°
2026-04-26 20:58 36.05851 -6.13083 31555 ft 408 kts 32°
2026-04-26 20:58 36.08173 -6.11094 31096 ft 405 kts 32°
2026-04-26 20:58 36.09699 -6.09786 30804 ft 403 kts 32°
2026-04-26 20:58 36.11992 -6.07819 30373 ft 399 kts 32°
2026-04-26 20:59 36.14271 -6.05864 29880 ft 397 kts 32°
2026-04-26 20:59 36.16529 -6.03925 29410 ft 393 kts 32°
2026-04-26 20:59 36.18775 -6.01993 28902 ft 391 kts 33°
2026-04-26 20:59 36.21003 -6.00079 28432 ft 388 kts 33°
2026-04-26 21:00 36.23271 -5.98311 27945 ft 383 kts 22°
2026-04-26 21:00 36.25798 -5.97437 27501 ft 375 kts
2026-04-26 21:00 36.28386 -5.97064 26963 ft 375 kts
2026-04-26 21:00 36.30966 -5.96682 26516 ft 372 kts
2026-04-26 21:01 36.33544 -5.96320 26052 ft 370 kts
2026-04-26 21:01 36.36099 -5.95975 25620 ft 368 kts
2026-04-26 21:01 36.38611 -5.95644 25179 ft 367 kts
2026-04-26 21:01 36.41151 -5.95311 24752 ft 365 kts
2026-04-26 21:02 36.43677 -5.94981 24319 ft 364 kts
2026-04-26 21:02 36.46190 -5.94653 23904 ft 363 kts
2026-04-26 21:02 36.48697 -5.94350 23448 ft 361 kts
2026-04-26 21:02 36.51207 -5.94714 22992 ft 356 kts 346°
2026-04-26 21:03 36.53597 -5.95341 22482 ft 356 kts 348°
2026-04-26 21:03 36.56051 -5.95961 22051 ft 353 kts 348°
2026-04-26 21:03 36.58419 -5.96572 21601 ft 352 kts 347°
2026-04-26 21:03 36.60806 -5.97194 21146 ft 346 kts 347°
2026-04-26 21:04 36.63158 -5.97811 20410 ft 345 kts 348°
2026-04-26 21:04 36.65502 -5.98427 19757 ft 342 kts 348°
2026-04-26 21:04 36.67820 -5.99037 19105 ft 340 kts 348°
2026-04-26 21:04 36.70125 -5.99645 18487 ft 337 kts 348°
2026-04-26 21:05 36.72419 -6.00250 17808 ft 334 kts 348°
2026-04-26 21:05 36.74685 -6.00848 17155 ft 330 kts 348°
2026-04-26 21:05 36.76928 -6.01440 16488 ft 328 kts 348°
2026-04-26 21:05 36.79120 -6.02019 15871 ft 324 kts 348°
2026-04-26 21:06 36.81348 -6.02595 15224 ft 321 kts 351°
2026-04-26 21:06 36.83526 -6.02914 14621 ft 318 kts 354°
2026-04-26 21:06 36.85721 -6.03221 14017 ft 316 kts 353°
2026-04-26 21:06 36.87893 -6.03538 13376 ft 313 kts 353°
2026-04-26 21:07 36.90050 -6.03859 12757 ft 309 kts 353°
2026-04-26 21:07 36.92178 -6.04181 12114 ft 307 kts 354°
2026-04-26 21:07 36.94291 -6.04502 11533 ft 303 kts 354°
2026-04-26 21:07 36.96378 -6.04821 11004 ft 298 kts 354°
2026-04-26 21:08 36.98372 -6.05126 10688 ft 286 kts 355°
2026-04-26 21:08 37.00338 -6.05426 10151 ft 284 kts 355°
2026-04-26 21:08 37.02293 -6.05726 9593 ft 281 kts 355°
2026-04-26 21:08 37.04251 -6.06026 9010 ft 279 kts 356°
2026-04-26 21:09 37.06138 -6.06316 8524 ft 275 kts 356°
2026-04-26 21:09 37.08064 -6.06612 8137 ft 274 kts 356°
2026-04-26 21:09 37.09932 -6.06899 7785 ft 273 kts 356°
2026-04-26 21:09 37.11814 -6.07188 7437 ft 272 kts 356°
2026-04-26 21:10 37.13682 -6.07474 7097 ft 270 kts 356°
2026-04-26 21:10 37.15548 -6.07761 6760 ft 269 kts 356°
2026-04-26 21:10 37.17406 -6.08047 6405 ft 268 kts 356°
2026-04-26 21:10 37.19246 -6.08330 6069 ft 266 kts 356°
2026-04-26 21:11 37.21087 -6.08614 5722 ft 265 kts 356°
2026-04-26 21:11 37.22909 -6.08895 5388 ft 263 kts 356°
2026-04-26 21:11 37.24724 -6.09175 5056 ft 262 kts 355°
2026-04-26 21:11 37.26532 -6.09449 4684 ft 262 kts 355°
2026-04-26 21:12 37.28346 -6.09726 4282 ft 263 kts 355°
2026-04-26 21:12 37.30147 -6.09999 4055 ft 257 kts 355°
2026-04-26 21:12 37.31891 -6.10264 3900 ft 248 kts 355°
2026-04-26 21:12 37.33577 -6.10521 3761 ft 239 kts 355°
2026-04-26 21:13 37.35193 -6.10767 3645 ft 229 kts 354°
2026-04-26 21:13 37.36729 -6.11001 3549 ft 217 kts 355°
2026-04-26 21:13 37.38196 -6.11224 3456 ft 205 kts 354°
2026-04-26 21:13 37.39554 -6.11513 3427 ft 193 kts 339°
2026-04-26 21:14 37.40624 -6.12505 3419 ft 194 kts 316°
2026-04-26 21:14 37.41742 -6.13370 3338 ft 191 kts 353°
2026-04-26 21:14 37.42966 -6.12986 3306 ft 184 kts 43°
2026-04-26 21:14 37.43717 -6.11691 3438 ft 187 kts 66°
2026-04-26 21:15 37.44018 -6.10099 3434 ft 188 kts 91°
2026-04-26 21:15 37.43665 -6.08529 3416 ft 188 kts 116°
2026-04-26 21:15 37.43102 -6.07034 3432 ft 188 kts 113°
2026-04-26 21:15 37.42576 -6.05564 3435 ft 181 kts 112°
2026-04-26 21:16 37.42068 -6.04123 3193 ft 179 kts 113°
2026-04-26 21:16 37.41741 -6.02635 2541 ft 177 kts 95°
2026-04-26 21:16 37.41726 -6.01147 2162 ft 160 kts 88°
2026-04-26 21:16 37.41752 -5.99779 1627 ft 158 kts 90°
2026-04-26 21:17 37.41757 -5.98443 1340 ft 141 kts 90°
2026-04-26 21:17 37.41760 -5.97205 1012 ft 143 kts 90°
2026-04-26 21:17 37.41758 -5.95963 645 ft 136 kts 91°
2026-04-26 21:17 37.41743 -5.94773 523 ft 138 kts 92°
2026-04-26 21:18 37.41755 -5.93552 634 ft 137 kts 89°
2026-04-26 21:18 37.41779 -5.92317 307 ft 141 kts 89°
2026-04-26 21:18 37.41787 -5.91043 111 ft 135 kts 92°
2026-04-26 21:18 37.41789 -5.89999 101 ft 104 kts 90°
2026-04-26 21:19 37.41794 -5.89309 102 ft 42 kts 84°
2026-04-26 21:19 37.41854 -5.89253 102 ft 8 kts 342°
2026-04-26 21:19 37.41909 -5.89292 101 ft 11 kts 329°
2026-04-26 21:19 37.41978 -5.89353 101 ft 13 kts 322°
2026-04-26 21:20 37.42033 -5.89421 100 ft 12 kts 314°
2026-04-26 21:20 37.42098 -5.89507 102 ft 15 kts 314°
2026-04-26 21:20 37.42162 -5.89589 98 ft 12 kts 314°
2026-04-26 21:20 37.42231 -5.89678 97 ft 16 kts 316°
2026-04-26 21:21 37.42262 -5.89749 97 ft 5 kts 255°
2026-04-26 21:21 37.42233 -5.89795 96 ft 8 kts 226°
2026-04-26 21:21 37.42185 -5.89857 96 ft 11 kts 225°
2026-04-26 21:21 37.42202 -5.89933 96 ft 9 kts 319°
2026-04-26 21:22 37.42213 -5.89947 96 ft 0 kts 315°